Olympia, WA
on Thursday, December 20, 2012

Thursday
Previous Day Next Day
Daily Summary
 ActualAverageRecord
Temperature
Mean Temperature °F / °C 38°F / 3°C  
Max Temperature 46°F / 8°C 44°F / 7°C 56°F / 13°C (1973)
Min Temperature 27°F / -3°C 32°F / 0°C 4°F / -15°C (1990)
Degree Days
Heating Degree Days 28 27  
Month to date heating degree days 476 529  
Since 1 July heating degree days 1863 1974  
Cooling Degree Days 0 0  
Month to date cooling degree days 0 0  
Year to date cooling degree days 82 106  
Moisture
Dew Point 35°F / 2°C   
Average Humidity 88    
Maximum Humidity 93    
Minimum Humidity 83    
Precipitation
Precipitation 0.67 in / 17.02 cm 0.22 in / 5.59 cm 1.87 in / 4.75 cm (1955)
Month to date precipitation 8.25 4.93  
Year to date precipitation 58.10 47.47  
Wind
Wind Speed 12 mph / 19 km/h   
Max Wind Speed 29 mph / 47 km/h   
Max Gust Speed 37 mph / 60 km/h   
Visibility 6 miles / 10 kilometers   
Events Fog , Rain   

Key: T is trace of precipitation, MM is missing value
Source: NWS Daily Summary
Time(PST)TemperatureDew PointHumidity Pressure Visibility Wind DirectionWind SpeedGust SpeedPrecipitationEvents Conditions
12:54 AM 44.1°F / 6.7°C 41.0°F / 5.0°C 89% 29.50 in / 999.0 hPa 10.0 miles / 16.1 kilometers South 15.0 mph / 24.1 km/h 25.3 mph / 40.7 km/h 0.02 in / 0.5 cm Rain Light Rain
1:54 AM 45.0°F / 7.2°C 41.0°F / 5.0°C 86% 29.49 in / 998.7 hPa 10.0 miles / 16.1 kilometers South 23.0 mph / 37.0 km/h 33.4 mph / 53.7 km/h 0.04 in / 1.0 cm Rain Light Rain
2:03 AM 45.0°F / 7.2°C 41.0°F / 5.0°C 86% 29.50 in / 998.9 hPa 10.0 miles / 16.1 kilometers South 24.2 mph / 38.9 km/h 35.7 mph / 57.4 km/h 0.00 in / 0.0 cm Rain Light Rain
2:54 AM 46.0°F / 7.8°C 41.0°F / 5.0°C 83% 29.52 in / 999.4 hPa 10.0 miles / 16.1 kilometers South 26.5 mph / 42.6 km/h 35.7 mph / 57.4 km/h 0.00 in / 0.0 cm   Overcast
3:12 AM 45.0°F / 7.2°C 41.0°F / 5.0°C 86% 29.53 in / 999.9 hPa 10.0 miles / 16.1 kilometers South 21.9 mph / 35.2 km/h 36.8 mph / 59.3 km/h N/A   Overcast
3:54 AM 45.0°F / 7.2°C 39.9°F / 4.4°C 82% 29.52 in / 999.7 hPa 10.0 miles / 16.1 kilometers South 20.7 mph / 33.3 km/h 32.2 mph / 51.9 km/h 0.00 in / 0.0 cm Rain Light Rain
4:04 AM 45.0°F / 7.2°C 39.9°F / 4.4°C 82% 29.53 in / 999.9 hPa 10.0 miles / 16.1 kilometers South 20.7 mph / 33.3 km/h 31.1 mph / 50.0 km/h 0.00 in / 0.0 cm Rain Light Rain
4:54 AM 44.1°F / 6.7°C 39.9°F / 4.4°C 85% 29.53 in / 1000.0 hPa 6.0 miles / 9.7 kilometers SSW 15.0 mph / 24.1 km/h - 0.02 in / 0.5 cm Rain Light Rain
5:25 AM 43.0°F / 6.1°C 39.9°F / 4.4°C 89% 29.54 in / 1000.2 hPa 4.0 miles / 6.4 kilometers SSW 8.1 mph / 13.0 km/h - 0.02 in / 0.5 cm Rain Light Rain
5:45 AM 42.1°F / 5.6°C 39.9°F / 4.4°C 92% 29.53 in / 999.9 hPa 4.0 miles / 6.4 kilometers SW 6.9 mph / 11.1 km/h - 0.06 in / 1.5 cm Rain Rain
5:54 AM 42.1°F / 5.6°C 39.9°F / 4.4°C 92% 29.55 in / 1000.4 hPa 5.0 miles / 8.0 kilometers SW 8.1 mph / 13.0 km/h - 0.08 in / 2.0 cm Rain Rain
6:27 AM 42.1°F / 5.6°C 39.9°F / 4.4°C 92% 29.54 in / 1000.2 hPa 4.0 miles / 6.4 kilometers SW 11.5 mph / 18.5 km/h 18.4 mph / 29.6 km/h 0.06 in / 1.5 cm Rain Rain
6:42 AM 42.1°F / 5.6°C 39.0°F / 3.9°C 89% 29.55 in / 1000.6 hPa 3.0 miles / 4.8 kilometers WSW 8.1 mph / 13.0 km/h - 0.11 in / 2.8 cm Rain Rain
6:54 AM 41.0°F / 5.0°C 39.0°F / 3.9°C 93% 29.56 in / 1000.8 hPa 3.0 miles / 4.8 kilometers SW 8.1 mph / 13.0 km/h - 0.14 in / 3.6 cm Rain Rain
7:54 AM 41.0°F / 5.0°C 39.9°F / 4.4°C 96% 29.56 in / 1000.9 hPa 4.0 miles / 6.4 kilometers SSW 5.8 mph / 9.3 km/h - 0.13 in / 3.3 cm Rain Light Rain
8:54 AM 41.0°F / 5.0°C 39.0°F / 3.9°C 93% 29.57 in / 1001.4 hPa 3.0 miles / 4.8 kilometers SSW 10.4 mph / 16.7 km/h - 0.05 in / 1.3 cm Rain Light Rain
9:54 AM 39.9°F / 4.4°C 37.0°F / 2.8°C 89% 29.59 in / 1002.0 hPa 7.0 miles / 11.3 kilometers South 20.7 mph / 33.3 km/h - 0.05 in / 1.3 cm Rain Light Rain
10:54 AM 39.0°F / 3.9°C 36.0°F / 2.2°C 89% 29.64 in / 1003.6 hPa 5.0 miles / 8.0 kilometers South 16.1 mph / 25.9 km/h 21.9 mph / 35.2 km/h 0.05 in / 1.3 cm Rain Light Rain
11:54 AM 39.0°F / 3.9°C 37.0°F / 2.8°C 93% 29.66 in / 1004.3 hPa 7.0 miles / 11.3 kilometers SSW 11.5 mph / 18.5 km/h - 0.06 in / 1.5 cm Rain Light Rain
12:54 PM 39.0°F / 3.9°C 37.0°F / 2.8°C 93% 29.68 in / 1005.0 hPa 8.0 miles / 12.9 kilometers SSW 13.8 mph / 22.2 km/h 25.3 mph / 40.7 km/h 0.03 in / 0.8 cm Rain Light Rain
1:23 PM 39.0°F / 3.9°C 36.0°F / 2.2°C 89% 29.68 in / 1005.0 hPa 10.0 miles / 16.1 kilometers South 13.8 mph / 22.2 km/h - 0.00 in / 0.0 cm   Mostly Cloudy
1:33 PM 39.9°F / 4.4°C 37.0°F / 2.8°C 89% 29.68 in / 1005.0 hPa 10.0 miles / 16.1 kilometers South 16.1 mph / 25.9 km/h 25.3 mph / 40.7 km/h 0.00 in / 0.0 cm   Mostly Cloudy
1:54 PM 39.9°F / 4.4°C 36.0°F / 2.2°C 86% 29.70 in / 1005.7 hPa 10.0 miles / 16.1 kilometers SSW 18.4 mph / 29.6 km/h 26.5 mph / 42.6 km/h 0.00 in / 0.0 cm   Scattered Clouds
2:54 PM 39.9°F / 4.4°C 36.0°F / 2.2°C 86% 29.73 in / 1006.6 hPa 10.0 miles / 16.1 kilometers South 18.4 mph / 29.6 km/h 25.3 mph / 40.7 km/h N/A   Partly Cloudy
3:54 PM 39.0°F / 3.9°C 36.0°F / 2.2°C 89% 29.75 in / 1007.5 hPa 10.0 miles / 16.1 kilometers SSW 13.8 mph / 22.2 km/h - N/A   Mostly Cloudy
4:54 PM 37.9°F / 3.3°C 35.1°F / 1.7°C 89% 29.76 in / 1007.8 hPa 10.0 miles / 16.1 kilometers SSW 11.5 mph / 18.5 km/h - 0.00 in / 0.0 cm   Partly Cloudy
5:54 PM 39.0°F / 3.9°C 35.1°F / 1.7°C 86% 29.79 in / 1008.6 hPa 10.0 miles / 16.1 kilometers South 9.2 mph / 14.8 km/h - N/A   Partly Cloudy
6:54 PM 37.9°F / 3.3°C 34.0°F / 1.1°C 86% 29.81 in / 1009.2 hPa 10.0 miles / 16.1 kilometers SSW 5.8 mph / 9.3 km/h - N/A   Mostly Cloudy
7:54 PM 37.0°F / 2.8°C 33.1°F / 0.6°C 86% 29.82 in / 1009.6 hPa 10.0 miles / 16.1 kilometers Calm Calm - N/A   Partly Cloudy
8:54 PM 32.0°F / 0.0°C 30.0°F / -1.1°C 92% 29.82 in / 1009.8 hPa 10.0 miles / 16.1 kilometers Calm Calm - N/A   Clear
9:54 PM 30.0°F / -1.1°C 28.9°F / -1.7°C 96% 29.83 in / 1009.9 hPa 6.0 miles / 9.7 kilometers Calm Calm - N/A   Clear
10:38 PM 28.9°F / -1.7°C 28.9°F / -1.7°C 100% 29.82 in / 1009.7 hPa 2.0 miles / 3.2 kilometers Calm Calm - N/A   Partly Cloudy
10:40 PM 28.9°F / -1.7°C 28.0°F / -2.2°C 96% 29.82 in / 1009.7 hPa 1.2 miles / 2.0 kilometers Calm Calm - N/A   Partly Cloudy
10:50 PM 28.4°F / -2.0°C 28.4°F / -2.0°C 100% 29.82 in / 1009.7 hPa 2.5 miles / 4.0 kilometers Calm Calm - N/A   Partly Cloudy
10:54 PM 28.0°F / -2.2°C 27.0°F / -2.8°C 96% 29.83 in / 1010.1 hPa 4.0 miles / 6.4 kilometers WSW 3.5 mph / 5.6 km/h - N/A   Partly Cloudy
10:59 PM 28.0°F / -2.2°C 27.0°F / -2.8°C 96% 29.82 in / 1009.7 hPa 1.5 miles / 2.4 kilometers SSW 4.6 mph / 7.4 km/h - N/A   Partly Cloudy
11:06 PM 28.0°F / -2.2°C 27.0°F / -2.8°C 96% 29.82 in / 1009.7 hPa 1.2 miles / 2.0 kilometers SW 3.5 mph / 5.6 km/h - N/A   Partly Cloudy
11:08 PM 28.0°F / -2.2°C 27.0°F / -2.8°C 96% 29.82 in / 1009.7 hPa 2.0 miles / 3.2 kilometers SW 3.5 mph / 5.6 km/h - N/A   Partly Cloudy
11:19 PM 28.0°F / -2.2°C 27.0°F / -2.8°C 96% 29.82 in / 1009.7 hPa 1.2 miles / 2.0 kilometers SE 4.6 mph / 7.4 km/h - N/A   Scattered Clouds
11:29 PM 28.0°F / -2.2°C 28.0°F / -2.2°C 100% 29.82 in / 1009.7 hPa 2.5 miles / 4.0 kilometers Calm Calm - N/A   Partly Cloudy
11:35 PM 28.0°F / -2.2°C 28.0°F / -2.2°C 100% 29.82 in / 1009.7 hPa 1.2 miles / 2.0 kilometers Calm Calm - N/A   Partly Cloudy
11:37 PM 28.0°F / -2.2°C 27.0°F / -2.8°C 96% 29.82 in / 1009.7 hPa 0.8 miles / 1.2 kilometers Calm Calm - N/A   Mist
11:54 PM 28.0°F / -2.2°C 27.0°F / -2.8°C 96% 29.82 in / 1009.7 hPa 0.5 miles / 0.8 kilometers Calm Calm - N/A Fog Light Freezing Fog
Moon Phase
Dec. 20 Dec. 28 Jan. 04 Jan. 11 Jan. 18
Sunrise:07:54 AM (PST) Moon Rise:12:04 PM (PST)12/20
Sunset:04:24 PM (PST) Moon Set:12:26 AM (PST)12/20

Copyright © 2014 The Weather Underground, Inc.